QPF
0.00 0.00 0.00 0.00 0.00 0.00 0.00 0.01 0.01 0.02 0.02 0.02 0.01 0.00 0.01 0.02 0.03 0.04 0.03 0.01 0.01 0.01 0.00 0.00 0.00 0.00 0.00 0.00 0.01 0.00 0.00 0.00 0.00 0.00 0.00 0.00 0.00 0.00 0.00 0.00 0.00 0.00 0.00 0.00 0.00 0.00 0.00 0.00 0.00
0.00 0.00 0.00 0.00 0.00 0.00 0.00 0.01 0.01 0.02 0.02 0.01 0.01 0.00 0.00 0.01 0.01 0.01 0.02 0.01 0.01 0.00 0.00 0.00 0.00 0.00 0.00 0.00 0.01 0.01 0.01 0.01 0.01 0.00 0.00 0.00 0.00 0.00 0.00 0.00 0.00 0.00 0.00 0.00 0.01 0.01 0.00 0.00 0.00
0.00 0.00 0.00 0.00 0.00 0.00 0.01 0.01 0.01 0.02 0.02 0.03 0.01 0.00 0.01 0.01 0.01 0.01 0.01 0.01 0.01 0.00 0.00 0.00 0.00 0.00 0.00 0.00 0.01 0.01 0.01 0.01 0.01 0.01 0.01 0.01 0.01 0.01 0.01 0.01 0.00 0.00 0.00 0.00 0.00 0.00 0.00 0.00 0.00
0.00 0.00 0.00 0.00 0.00 0.00 0.00 0.01 0.02 0.03 0.03 0.02 0.01 0.01 0.01 0.02 0.01 0.01 0.01 0.01 0.01 0.00 0.00 0.00 0.00 0.00 0.00 0.00 0.01 0.01 0.01 0.01 0.02 0.01 0.01 0.01 0.01 0.01 0.01 0.01 0.01 0.00 0.00 0.00 0.00 0.00 0.00 0.00 0.00
0.00 0.00 0.00 0.00 0.00 0.00 0.01 0.01 0.01 0.02 0.04 0.03 0.02 0.02 0.02 0.02 0.02 0.01 0.01 0.01 0.00 0.00 0.00 0.00 0.00 0.00 0.00 0.01 0.01 0.01 0.02 0.02 0.03 0.03 0.02 0.02 0.01 0.01 0.01 0.01 0.01 0.01 0.01 0.01 0.01 0.01 0.00 0.00 0.00
0.00 0.00 0.00 0.00 0.00 0.01 0.02 0.03 0.02 0.02 0.04 0.04 0.04 0.04 0.07 0.05 0.03 0.02 0.01 0.01 0.01 0.00 0.00 0.00 0.00 0.00 0.00 0.01 0.01 0.02 0.03 0.04 0.04 0.04 0.02 0.02 0.02 0.02 0.02 0.02 0.02 0.01 0.01 0.01 0.01 0.01 0.00 0.00 0.00
0.00 0.00 0.00 0.00 0.00 0.01 0.02 0.03 0.02 0.02 0.05 0.08 0.11 0.10 0.10 0.07 0.04 0.03 0.02 0.02 0.03 0.02 0.01 0.00 0.00 0.00 0.00 0.01 0.01 0.02 0.02 0.03 0.03 0.04 0.02 0.02 0.02 0.03 0.03 0.02 0.02 0.02 0.01 0.01 0.01 0.01 0.01 0.00 0.01
0.00 0.00 0.00 0.00 0.00 0.01 0.01 0.01 0.02 0.04 0.07 0.09 0.12 0.12 0.11 0.08 0.05 0.03 0.03 0.03 0.03 0.02 0.01 0.01 0.01 0.00 0.00 0.01 0.01 0.01 0.01 0.02 0.02 0.03 0.03 0.02 0.02 0.02 0.03 0.03 0.03 0.03 0.03 0.02 0.01 0.01 0.01 0.01 0.01
0.00 0.00 0.00 0.00 0.00 0.02 0.02 0.01 0.01 0.04 0.06 0.08 0.16 0.17 0.10 0.05 0.05 0.05 0.04 0.04 0.04 0.02 0.01 0.01 0.00 0.00 0.01 0.01 0.01 0.02 0.02 0.03 0.03 0.02 0.03 0.03 0.02 0.02 0.03 0.05 0.06 0.05 0.04 0.04 0.03 0.02 0.02 0.02 0.02
0.00 0.00 0.00 0.00 0.00 0.01 0.02 0.01 0.02 0.02 0.03 0.06 0.14 0.25 0.19 0.07 0.04 0.05 0.04 0.04 0.09 0.07 0.05 0.07 0.03 0.02 0.03 0.02 0.02 0.01 0.02 0.03 0.03 0.03 0.04 0.06 0.06 0.06 0.06 0.10 0.12 0.09 0.07 0.05 0.04 0.03 0.02 0.02 0.02
0.00 0.00 0.00 0.00 0.00 0.01 0.01 0.02 0.03 0.08 0.11 0.10 0.19 0.22 0.12 0.05 0.04 0.04 0.03 0.03 0.05 0.06 0.06 0.08 0.11 0.10 0.11 0.08 0.05 0.02 0.02 0.03 0.04 0.05 0.07 0.06 0.08 0.10 0.12 0.11 0.10 0.08 0.08 0.06 0.04 0.05 0.04 0.03 0.04
0.00 0.00 0.00 0.00 0.01 0.01 0.01 0.02 0.07 0.18 0.16 0.10 0.10 0.08 0.07 0.08 0.06 0.04 0.05 0.05 0.06 0.07 0.07 0.09 0.17 0.22 0.22 0.16 0.09 0.07 0.05 0.05 0.05 0.09 0.11 0.10 0.14 0.20 0.21 0.20 0.13 0.11 0.10 0.08 0.06 0.05 0.04 0.04 0.05
0.00 0.00 0.00 0.00 0.01 0.01 0.02 0.03 0.07 0.09 0.06 0.05 0.04 0.05 0.08 0.11 0.11 0.07 0.06 0.05 0.04 0.04 0.05 0.07 0.16 0.26 0.33 0.23 0.16 0.13 0.14 0.16 0.18 0.20 0.20 0.16 0.18 0.26 0.29 0.26 0.19 0.16 0.14 0.09 0.08 0.07 0.07 0.08 0.07
0.00 0.00 0.00 0.00 0.01 0.02 0.05 0.05 0.07 0.07 0.08 0.07 0.06 0.06 0.07 0.13 0.15 0.09 0.06 0.04 0.03 0.02 0.04 0.05 0.09 0.18 0.23 0.27 0.21 0.19 0.20 0.20 0.20 0.23 0.26 0.25 0.22 0.23 0.31 0.28 0.19 0.15 0.16 0.12 0.12 0.08 0.07 0.07 0.09
0.00 0.00 0.00 0.01 0.00 0.01 0.03 0.07 0.11 0.07 0.06 0.08 0.09 0.09 0.12 0.12 0.10 0.08 0.07 0.05 0.04 0.03 0.04 0.06 0.09 0.10 0.13 0.24 0.24 0.26 0.24 0.23 0.20 0.28 0.26 0.22 0.20 0.20 0.22 0.22 0.17 0.14 0.14 0.12 0.13 0.12 0.09 0.07 0.08
0.00 0.00 0.01 0.01 0.01 0.01 0.02 0.07 0.12 0.06 0.04 0.04 0.05 0.08 0.15 0.11 0.10 0.12 0.14 0.09 0.06 0.05 0.05 0.05 0.07 0.07 0.08 0.15 0.18 0.23 0.22 0.25 0.19 0.23 0.19 0.16 0.14 0.14 0.16 0.14 0.14 0.14 0.13 0.13 0.14 0.15 0.14 0.11 0.09
0.00 0.00 0.00 0.01 0.01 0.01 0.02 0.05 0.06 0.05 0.03 0.04 0.08 0.12 0.14 0.14 0.16 0.24 0.27 0.15 0.08 0.05 0.04 0.05 0.07 0.06 0.06 0.09 0.11 0.15 0.21 0.24 0.17 0.13 0.13 0.12 0.11 0.11 0.11 0.10 0.12 0.15 0.15 0.14 0.15 0.14 0.13 0.11 0.08
0.00 0.00 0.01 0.01 0.01 0.01 0.04 0.06 0.09 0.08 0.05 0.04 0.07 0.13 0.14 0.14 0.17 0.24 0.30 0.18 0.11 0.08 0.05 0.05 0.04 0.03 0.04 0.05 0.06 0.08 0.14 0.20 0.17 0.13 0.10 0.10 0.11 0.12 0.12 0.11 0.14 0.17 0.16 0.15 0.15 0.15 0.12 0.09 0.09
0.00 0.01 0.01 0.01 0.01 0.04 0.07 0.05 0.09 0.15 0.15 0.10 0.07 0.07 0.08 0.14 0.18 0.22 0.24 0.12 0.06 0.08 0.06 0.04 0.04 0.03 0.03 0.04 0.05 0.07 0.09 0.14 0.17 0.13 0.09 0.07 0.09 0.13 0.13 0.13 0.14 0.13 0.14 0.14 0.13 0.11 0.10 0.08 0.08
0.01 0.02 0.02 0.02 0.02 0.06 0.09 0.07 0.07 0.14 0.17 0.09 0.07 0.10 0.12 0.19 0.24 0.19 0.10 0.04 0.03 0.03 0.03 0.04 0.04 0.03 0.05 0.06 0.06 0.06 0.05 0.07 0.10 0.09 0.06 0.06 0.06 0.09 0.12 0.15 0.13 0.09 0.09 0.08 0.08 0.07 0.07 0.07 0.08
0.01 0.01 0.03 0.02 0.02 0.02 0.04 0.06 0.08 0.09 0.09 0.09 0.09 0.12 0.12 0.12 0.14 0.06 0.03 0.02 0.02 0.02 0.03 0.05 0.06 0.06 0.10 0.08 0.06 0.06 0.04 0.04 0.06 0.07 0.05 0.04 0.04 0.05 0.07 0.09 0.10 0.08 0.07 0.07 0.06 0.05 0.05 0.05 0.05
0.00 0.00 0.02 0.02 0.01 0.02 0.03 0.05 0.06 0.11 0.14 0.19 0.18 0.14 0.12 0.09 0.07 0.04 0.02 0.02 0.02 0.02 0.03 0.04 0.06 0.05 0.06 0.05 0.05 0.04 0.03 0.03 0.04 0.04 0.03 0.03 0.03 0.04 0.04 0.05 0.07 0.08 0.07 0.07 0.06 0.05 0.04 0.04 0.03
0.00 0.00 0.01 0.01 0.00 0.01 0.02 0.03 0.05 0.09 0.12 0.21 0.27 0.15 0.13 0.10 0.07 0.04 0.02 0.02 0.03 0.02 0.03 0.03 0.04 0.05 0.05 0.05 0.04 0.03 0.03 0.02 0.02 0.02 0.02 0.02 0.03 0.03 0.04 0.03 0.03 0.04 0.05 0.05 0.05 0.04 0.03 0.03 0.02
0.00 0.00 0.00 0.00 0.00 0.01 0.01 0.02 0.05 0.08 0.09 0.14 0.17 0.15 0.15 0.11 0.07 0.04 0.03 0.03 0.03 0.02 0.02 0.04 0.05 0.05 0.04 0.02 0.03 0.05 0.04 0.03 0.01 0.01 0.02 0.02 0.02 0.03 0.06 0.06 0.05 0.04 0.04 0.04 0.03 0.03 0.02 0.02 0.02
0.00 0.00 0.00 0.01 0.01 0.01 0.01 0.04 0.08 0.09 0.09 0.09 0.13 0.16 0.16 0.12 0.08 0.05 0.04 0.03 0.02 0.02 0.02 0.02 0.02 0.04 0.04 0.04 0.04 0.04 0.05 0.03 0.02 0.01 0.01 0.01 0.01 0.03 0.08 0.13 0.12 0.08 0.05 0.04 0.03 0.02 0.01 0.01 0.01
0.00 0.00 0.01 0.01 0.02 0.02 0.03 0.06 0.09 0.11 0.13 0.13 0.18 0.20 0.16 0.12 0.07 0.04 0.03 0.03 0.02 0.02 0.02 0.01 0.02 0.03 0.02 0.01 0.01 0.02 0.03 0.03 0.02 0.02 0.01 0.01 0.01 0.02 0.04 0.05 0.07 0.08 0.07 0.04 0.03 0.01 0.00 0.00 0.00
0.00 0.00 0.01 0.01 0.02 0.03 0.06 0.12 0.17 0.24 0.28 0.27 0.28 0.26 0.18 0.10 0.08 0.05 0.04 0.04 0.03 0.02 0.02 0.01 0.01 0.01 0.01 0.00 0.00 0.00 0.01 0.02 0.02 0.02 0.02 0.02 0.03 0.03 0.03 0.04 0.04 0.04 0.03 0.03 0.02 0.01 0.00 0.01 0.00
0.00 0.01 0.01 0.02 0.04 0.07 0.09 0.14 0.18 0.21 0.26 0.23 0.21 0.20 0.16 0.13 0.11 0.09 0.06 0.04 0.04 0.03 0.02 0.01 0.01 0.01 0.00 0.00 0.00 0.00 0.01 0.01 0.02 0.02 0.02 0.02 0.03 0.03 0.02 0.02 0.02 0.02 0.01 0.01 0.01 0.01 0.01 0.01 0.01
0.00 0.01 0.02 0.02 0.03 0.06 0.08 0.11 0.12 0.12 0.16 0.14 0.12 0.17 0.18 0.15 0.12 0.09 0.06 0.04 0.04 0.03 0.03 0.02 0.02 0.02 0.01 0.01 0.01 0.01 0.01 0.00 0.01 0.01 0.01 0.01 0.02 0.02 0.01 0.01 0.01 0.01 0.01 0.01 0.01 0.01 0.00 0.00 0.00
0.00 0.01 0.01 0.02 0.03 0.03 0.06 0.09 0.07 0.09 0.13 0.10 0.11 0.19 0.20 0.14 0.11 0.09 0.06 0.04 0.03 0.03 0.03 0.03 0.02 0.02 0.01 0.01 0.01 0.01 0.00 0.00 0.00 0.01 0.01 0.01 0.01 0.01 0.01 0.00 0.01 0.01 0.01 0.01 0.01 0.01 0.00 0.01 0.01
MSLP
1010.16 1011.14 1012.30 1013.42 1014.26 1014.66 1014.57 1014.03 1013.19 1012.27 1011.49 1011.02 1010.94 1011.22 1011.77 1012.42 1013.01 1013.39 1013.53 1013.46 1013.28 1013.12 1013.10 1013.29 1013.70 1014.28 1014.92 1015.50 1015.94 1016.18 1016.25 1016.19 1016.11 1016.07 1016.15 1016.36 1016.67 1017.02 1017.35 1017.61 1017.76 1017.82 1017.82 1017.80 1017.82 1017.90 1018.04 1018.21 1018.40
1010.77 1011.89 1013.09 1014.12 1014.77 1014.93 1014.56 1013.76 1012.70 1011.61 1010.73 1010.20 1010.10 1010.39 1010.95 1011.61 1012.21 1012.63 1012.82 1012.83 1012.74 1012.69 1012.78 1013.08 1013.59 1014.25 1014.94 1015.57 1016.06 1016.35 1016.48 1016.48 1016.45 1016.47 1016.58 1016.79 1017.07 1017.38 1017.65 1017.84 1017.93 1017.94 1017.91 1017.88 1017.90 1017.98 1018.12 1018.30 1018.48
1011.54 1012.74 1013.90 1014.78 1015.22 1015.13 1014.51 1013.50 1012.28 1011.11 1010.19 1009.67 1009.59 1009.90 1010.47 1011.14 1011.73 1012.15 1012.37 1012.42 1012.39 1012.42 1012.58 1012.95 1013.51 1014.21 1014.93 1015.60 1016.12 1016.46 1016.64 1016.71 1016.74 1016.79 1016.91 1017.11 1017.34 1017.59 1017.79 1017.91 1017.96 1017.95 1017.91 1017.90 1017.93 1018.03 1018.18 1018.36 1018.54
1012.37 1013.57 1014.62 1015.33 1015.54 1015.22 1014.42 1013.28 1012.01 1010.84 1009.97 1009.51 1009.49 1009.83 1010.41 1011.06 1011.63 1012.04 1012.25 1012.32 1012.33 1012.39 1012.60 1012.99 1013.56 1014.24 1014.95 1015.61 1016.13 1016.50 1016.73 1016.85 1016.92 1017.01 1017.13 1017.29 1017.47 1017.65 1017.78 1017.86 1017.88 1017.87 1017.87 1017.89 1017.96 1018.09 1018.26 1018.43 1018.60
1013.15 1014.26 1015.16 1015.65 1015.66 1015.17 1014.27 1013.10 1011.88 1010.81 1010.06 1009.72 1009.77 1010.15 1010.73 1011.34 1011.87 1012.24 1012.44 1012.51 1012.54 1012.63 1012.84 1013.22 1013.75 1014.38 1015.03 1015.63 1016.12 1016.48 1016.72 1016.88 1016.99 1017.09 1017.21 1017.34 1017.47 1017.59 1017.67 1017.72 1017.74 1017.76 1017.81 1017.89 1018.03 1018.19 1018.37 1018.54 1018.68
1013.74 1014.69 1015.38 1015.67 1015.52 1014.93 1014.02 1012.94 1011.86 1010.98 1010.41 1010.20 1010.34 1010.74 1011.29 1011.84 1012.31 1012.63 1012.81 1012.89 1012.95 1013.06 1013.28 1013.62 1014.09 1014.62 1015.17 1015.66 1016.08 1016.40 1016.63 1016.80 1016.93 1017.06 1017.18 1017.29 1017.39 1017.46 1017.51 1017.55 1017.59 1017.66 1017.77 1017.93 1018.12 1018.33 1018.52 1018.67 1018.77
1014.04 1014.78 1015.25 1015.35 1015.08 1014.48 1013.66 1012.75 1011.90 1011.25 1010.89 1010.83 1011.03 1011.43 1011.91 1012.38 1012.76 1013.03 1013.20 1013.30 1013.40 1013.55 1013.78 1014.09 1014.48 1014.91 1015.32 1015.69 1016.01 1016.26 1016.47 1016.64 1016.80 1016.95 1017.09 1017.20 1017.28 1017.34 1017.37 1017.41 1017.47 1017.59 1017.76 1017.99 1018.23 1018.47 1018.67 1018.80 1018.86
1014.03 1014.54 1014.78 1014.73 1014.40 1013.85 1013.19 1012.51 1011.94 1011.55 1011.39 1011.45 1011.69 1012.04 1012.42 1012.78 1013.07 1013.28 1013.45 1013.60 1013.76 1013.97 1014.23 1014.53 1014.85 1015.17 1015.45 1015.69 1015.90 1016.09 1016.27 1016.45 1016.64 1016.83 1017.00 1017.13 1017.22 1017.26 1017.29 1017.33 1017.41 1017.55 1017.77 1018.04 1018.32 1018.58 1018.78 1018.88 1018.90
1013.77 1014.04 1014.08 1013.92 1013.57 1013.13 1012.66 1012.25 1011.96 1011.82 1011.84 1011.99 1012.22 1012.48 1012.73 1012.95 1013.14 1013.31 1013.49 1013.69 1013.94 1014.23 1014.55 1014.86 1015.13 1015.36 1015.53 1015.66 1015.77 1015.90 1016.06 1016.27 1016.51 1016.75 1016.97 1017.14 1017.24 1017.28 1017.29 1017.31 1017.38 1017.53 1017.76 1018.04 1018.34 1018.61 1018.80 1018.89 1018.88
1013.36 1013.42 1013.30 1013.05 1012.74 1012.42 1012.17 1012.01 1011.98 1012.06 1012.22 1012.40 1012.59 1012.73 1012.84 1012.92 1013.00 1013.13 1013.32 1013.60 1013.94 1014.33 1014.71 1015.05 1015.30 1015.46 1015.55 1015.59 1015.64 1015.73 1015.90 1016.14 1016.44 1016.75 1017.03 1017.23 1017.34 1017.37 1017.36 1017.34 1017.38 1017.49 1017.70 1017.97 1018.26 1018.53 1018.72 1018.80 1018.78
1012.95 1012.84 1012.60 1012.31 1012.03 1011.85 1011.79 1011.86 1012.04 1012.29 1012.53 1012.73 1012.84 1012.86 1012.83 1012.77 1012.77 1012.86 1013.07 1013.41 1013.85 1014.32 1014.77 1015.14 1015.38 1015.50 1015.53 1015.52 1015.53 1015.62 1015.80 1016.10 1016.46 1016.83 1017.16 1017.40 1017.52 1017.53 1017.47 1017.39 1017.36 1017.42 1017.57 1017.80 1018.07 1018.33 1018.52 1018.61 1018.60
1012.68 1012.45 1012.12 1011.80 1011.57 1011.49 1011.59 1011.83 1012.17 1012.53 1012.82 1013.00 1013.05 1012.96 1012.81 1012.66 1012.58 1012.65 1012.88 1013.28 1013.78 1014.31 1014.81 1015.19 1015.43 1015.52 1015.52 1015.48 1015.47 1015.57 1015.79 1016.13 1016.55 1016.98 1017.35 1017.60 1017.71 1017.69 1017.57 1017.42 1017.31 1017.28 1017.36 1017.53 1017.77 1018.02 1018.22 1018.34 1018.36
1012.64 1012.31 1011.92 1011.59 1011.39 1011.39 1011.58 1011.94 1012.37 1012.79 1013.11 1013.28 1013.27 1013.12 1012.90 1012.69 1012.59 1012.65 1012.90 1013.33 1013.86 1014.42 1014.92 1015.30 1015.51 1015.58 1015.55 1015.49 1015.49 1015.60 1015.85 1016.24 1016.69 1017.15 1017.54 1017.79 1017.87 1017.80 1017.61 1017.38 1017.18 1017.07 1017.07 1017.19 1017.39 1017.63 1017.85 1018.01 1018.09
1012.82 1012.44 1012.00 1011.65 1011.46 1011.49 1011.74 1012.14 1012.62 1013.06 1013.40 1013.56 1013.54 1013.38 1013.16 1012.96 1012.87 1012.95 1013.22 1013.65 1014.17 1014.71 1015.18 1015.51 1015.68 1015.71 1015.65 1015.59 1015.59 1015.71 1015.98 1016.38 1016.84 1017.30 1017.67 1017.89 1017.93 1017.80 1017.55 1017.25 1016.97 1016.79 1016.73 1016.80 1016.97 1017.21 1017.46 1017.67 1017.81
1013.16 1012.73 1012.26 1011.89 1011.69 1011.72 1011.97 1012.37 1012.85 1013.30 1013.65 1013.83 1013.85 1013.74 1013.57 1013.44 1013.41 1013.53 1013.82 1014.23 1014.71 1015.19 1015.58 1015.83 1015.94 1015.92 1015.83 1015.75 1015.75 1015.88 1016.14 1016.53 1016.97 1017.39 1017.71 1017.87 1017.86 1017.68 1017.38 1017.03 1016.70 1016.47 1016.36 1016.40 1016.56 1016.81 1017.08 1017.34 1017.55
1013.51 1013.05 1012.56 1012.18 1011.97 1011.99 1012.21 1012.59 1013.05 1013.48 1013.83 1014.05 1014.14 1014.13 1014.07 1014.05 1014.11 1014.29 1014.60 1014.99 1015.41 1015.79 1016.07 1016.23 1016.25 1016.18 1016.06 1015.97 1015.96 1016.08 1016.32 1016.66 1017.04 1017.39 1017.64 1017.74 1017.67 1017.45 1017.12 1016.74 1016.39 1016.14 1016.02 1016.04 1016.19 1016.45 1016.75 1017.06 1017.32
1013.75 1013.28 1012.80 1012.43 1012.23 1012.24 1012.44 1012.78 1013.19 1013.60 1013.95 1014.21 1014.38 1014.48 1014.56 1014.67 1014.85 1015.10 1015.43 1015.78 1016.13 1016.41 1016.58 1016.64 1016.58 1016.46 1016.31 1016.21 1016.20 1016.30 1016.50 1016.78 1017.08 1017.34 1017.50 1017.52 1017.40 1017.14 1016.80 1016.43 1016.09 1015.85 1015.73 1015.76 1015.91 1016.17 1016.49 1016.82 1017.13
1013.78 1013.33 1012.91 1012.60 1012.45 1012.48 1012.67 1012.98 1013.34 1013.71 1014.04 1014.32 1014.55 1014.76 1014.96 1015.20 1015.49 1015.81 1016.16 1016.48 1016.76 1016.94 1017.02 1016.99 1016.87 1016.71 1016.56 1016.46 1016.45 1016.53 1016.69 1016.90 1017.11 1017.27 1017.33 1017.28 1017.10 1016.83 1016.49 1016.15 1015.85 1015.64 1015.55 1015.58 1015.73 1015.99 1016.30 1016.65 1016.98
1013.58 1013.21 1012.91 1012.73 1012.69 1012.79 1013.00 1013.29 1013.59 1013.89 1014.17 1014.43 1014.68 1014.94 1015.23 1015.56 1015.93 1016.31 1016.68 1016.99 1017.21 1017.32 1017.33 1017.24 1017.09 1016.93 1016.80 1016.72 1016.72 1016.79 1016.91 1017.05 1017.17 1017.23 1017.20 1017.07 1016.86 1016.58 1016.27 1015.97 1015.72 1015.55 1015.49 1015.53 1015.67 1015.90 1016.20 1016.53 1016.86
1013.22 1013.00 1012.90 1012.92 1013.05 1013.27 1013.54 1013.81 1014.05 1014.25 1014.43 1014.60 1014.79 1015.04 1015.35 1015.73 1016.15 1016.57 1016.95 1017.25 1017.45 1017.52 1017.50 1017.39 1017.25 1017.11 1017.02 1016.98 1017.01 1017.08 1017.18 1017.26 1017.30 1017.27 1017.16 1016.97 1016.73 1016.45 1016.17 1015.92 1015.72 1015.60 1015.56 1015.60 1015.73 1015.92 1016.17 1016.46 1016.77
1012.84 1012.85 1013.00 1013.29 1013.65 1014.03 1014.37 1014.63 1014.79 1014.85 1014.87 1014.88 1014.95 1015.11 1015.37 1015.73 1016.15 1016.59 1016.98 1017.29 1017.49 1017.57 1017.56 1017.47 1017.37 1017.28 1017.24 1017.26 1017.33 1017.42 1017.50 1017.54 1017.52 1017.42 1017.24 1017.01 1016.75 1016.48 1016.23 1016.03 1015.88 1015.79 1015.77 1015.80 1015.88 1016.02 1016.21 1016.44 1016.71
1012.61 1012.88 1013.34 1013.93 1014.54 1015.10 1015.52 1015.76 1015.81 1015.70 1015.50 1015.30 1015.17 1015.17 1015.31 1015.60 1016.00 1016.43 1016.85 1017.18 1017.41 1017.54 1017.56 1017.53 1017.49 1017.47 1017.50 1017.57 1017.68 1017.79 1017.86 1017.88 1017.81 1017.67 1017.45 1017.19 1016.92 1016.67 1016.45 1016.28 1016.17 1016.10 1016.08 1016.08 1016.12 1016.19 1016.31 1016.46 1016.66
1012.64 1013.20 1013.97 1014.84 1015.70 1016.42 1016.90 1017.10 1017.01 1016.70 1016.26 1015.80 1015.43 1015.22 1015.22 1015.40 1015.75 1016.18 1016.61 1017.00 1017.29 1017.48 1017.58 1017.62 1017.65 1017.70 1017.79 1017.91 1018.05 1018.17 1018.25 1018.25 1018.16 1017.99 1017.75 1017.48 1017.21 1016.97 1016.78 1016.64 1016.55 1016.49 1016.45 1016.42 1016.41 1016.41 1016.44 1016.51 1016.64
1012.98 1013.80 1014.84 1015.96 1017.00 1017.83 1018.34 1018.46 1018.23 1017.70 1017.00 1016.28 1015.67 1015.25 1015.08 1015.16 1015.45 1015.88 1016.36 1016.81 1017.18 1017.46 1017.65 1017.77 1017.87 1017.97 1018.10 1018.25 1018.40 1018.53 1018.60 1018.59 1018.50 1018.32 1018.08 1017.82 1017.57 1017.35 1017.18 1017.05 1016.97 1016.91 1016.85 1016.78 1016.71 1016.64 1016.60 1016.60 1016.65
1013.58 1014.59 1015.82 1017.10 1018.25 1019.13 1019.60 1019.64 1019.24 1018.51 1017.59 1016.64 1015.80 1015.20 1014.89 1014.89 1015.15 1015.60 1016.12 1016.65 1017.12 1017.50 1017.77 1017.97 1018.12 1018.26 1018.40 1018.56 1018.70 1018.82 1018.89 1018.88 1018.78 1018.62 1018.40 1018.16 1017.93 1017.73 1017.58 1017.47 1017.39 1017.31 1017.23 1017.13 1017.01 1016.88 1016.77 1016.71 1016.70
1014.31 1015.42 1016.73 1018.06 1019.23 1020.07 1020.48 1020.40 1019.87 1018.97 1017.88 1016.76 1015.78 1015.06 1014.67 1014.62 1014.88 1015.36 1015.95 1016.57 1017.13 1017.59 1017.95 1018.20 1018.39 1018.54 1018.68 1018.81 1018.93 1019.03 1019.08 1019.07 1018.98 1018.84 1018.65 1018.45 1018.25 1018.08 1017.95 1017.85 1017.76 1017.68 1017.57 1017.44 1017.28 1017.12 1016.96 1016.85 1016.79
1014.99 1016.11 1017.38 1018.65 1019.74 1020.49 1020.80 1020.62 1019.99 1019.00 1017.82 1016.63 1015.59 1014.83 1014.42 1014.38 1014.67 1015.20 1015.86 1016.56 1017.20 1017.74 1018.15 1018.44 1018.64 1018.78 1018.88 1018.98 1019.06 1019.13 1019.16 1019.15 1019.08 1018.97 1018.83 1018.67 1018.52 1018.38 1018.27 1018.17 1018.08 1017.99 1017.86 1017.71 1017.54 1017.35 1017.17 1017.02 1016.94
1015.47 1016.49 1017.63 1018.76 1019.70 1020.32 1020.52 1020.27 1019.61 1018.61 1017.46 1016.30 1015.30 1014.59 1014.23 1014.23 1014.57 1015.15 1015.87 1016.62 1017.32 1017.90 1018.35 1018.65 1018.84 1018.95 1019.02 1019.06 1019.10 1019.13 1019.15 1019.15 1019.11 1019.04 1018.95 1018.85 1018.74 1018.63 1018.54 1018.45 1018.36 1018.25 1018.12 1017.96 1017.77 1017.57 1017.38 1017.22 1017.12
1015.63 1016.48 1017.43 1018.35 1019.11 1019.59 1019.72 1019.45 1018.83 1017.93 1016.90 1015.89 1015.03 1014.44 1014.18 1014.26 1014.65 1015.27 1016.01 1016.78 1017.49 1018.08 1018.53 1018.82 1018.98 1019.06 1019.08 1019.08 1019.08 1019.09 1019.10 1019.10 1019.10 1019.08 1019.05 1018.99 1018.93 1018.86 1018.79 1018.71 1018.61 1018.49 1018.35 1018.18 1017.99 1017.79 1017.60 1017.45 1017.34
1015.49 1016.13 1016.84 1017.54 1018.12 1018.49 1018.58 1018.36 1017.86 1017.15 1016.34 1015.55 1014.90 1014.48 1014.35 1014.51 1014.94 1015.56 1016.29 1017.03 1017.71 1018.27 1018.68 1018.95 1019.08 1019.12 1019.10 1019.07 1019.04 1019.03 1019.04 1019.07 1019.11 1019.14 1019.16 1019.16 1019.14 1019.10 1019.04 1018.96 1018.85 1018.72 1018.57 1018.39 1018.20 1018.01 1017.83 1017.67 1017.55
Thickness
5817 5820 5820 5809 5783 5760 5761 5782 5802 5807 5811 5822 5826 5818 5806 5797 5787 5777 5799 5807 5803 5798 5793 5790 5787 5785 5782 5780 5778 5776 5774 5772 5771 5769 5768 5766 5765 5763 5762 5760 5759 5757 5756 5754 5753 5751 5750 5748 5746
5815 5818 5809 5791 5763 5745 5757 5787 5800 5810 5817 5824 5822 5817 5806 5798 5804 5798 5799 5801 5800 5796 5791 5788 5785 5782 5780 5777 5775 5773 5771 5770 5768 5766 5765 5763 5762 5760 5759 5757 5756 5754 5753 5752 5750 5749 5748 5746 5745
5813 5813 5792 5773 5758 5750 5766 5793 5806 5817 5824 5823 5814 5814 5804 5796 5802 5799 5799 5799 5796 5792 5788 5785 5782 5779 5777 5774 5772 5770 5768 5766 5765 5763 5762 5760 5759 5757 5756 5755 5753 5752 5750 5749 5748 5747 5745 5744 5743
5805 5794 5782 5764 5760 5772 5785 5798 5809 5812 5815 5819 5814 5801 5801 5807 5806 5802 5799 5797 5792 5787 5784 5781 5779 5776 5774 5771 5769 5766 5765 5763 5762 5760 5758 5757 5755 5754 5753 5752 5750 5749 5748 5747 5745 5744 5743 5742 5741
5796 5778 5763 5752 5762 5783 5799 5808 5812 5808 5807 5808 5809 5790 5787 5801 5806 5801 5796 5792 5788 5783 5780 5777 5775 5773 5770 5768 5766 5764 5761 5760 5758 5756 5754 5753 5752 5751 5750 5749 5747 5746 5745 5744 5743 5741 5740 5739 5738
5776 5765 5747 5744 5761 5783 5799 5809 5810 5804 5800 5803 5800 5787 5780 5794 5795 5793 5792 5788 5784 5780 5776 5773 5771 5769 5767 5764 5762 5760 5758 5756 5754 5752 5751 5750 5749 5748 5746 5745 5745 5744 5742 5741 5740 5739 5738 5737 5736
5767 5756 5749 5756 5763 5775 5795 5807 5804 5798 5793 5796 5800 5782 5777 5786 5791 5790 5787 5783 5778 5775 5772 5769 5767 5765 5763 5761 5759 5757 5755 5753 5750 5748 5747 5746 5745 5744 5743 5742 5741 5741 5739 5739 5738 5737 5736 5735 5734
5775 5759 5755 5757 5763 5770 5792 5801 5800 5796 5789 5798 5798 5780 5772 5782 5788 5785 5780 5776 5772 5769 5768 5765 5763 5761 5759 5756 5754 5752 5750 5749 5747 5745 5743 5742 5741 5740 5739 5738 5738 5737 5737 5736 5735 5734 5733 5732 5731
5781 5751 5744 5757 5765 5770 5788 5790 5792 5796 5791 5790 5793 5790 5787 5786 5784 5778 5770 5766 5764 5763 5762 5761 5759 5756 5754 5751 5749 5747 5745 5743 5742 5740 5738 5737 5736 5735 5735 5734 5734 5733 5733 5733 5732 5731 5730 5730 5729
5766 5744 5755 5775 5779 5778 5784 5788 5789 5782 5777 5776 5778 5784 5785 5781 5776 5769 5763 5758 5757 5755 5756 5755 5754 5751 5749 5747 5744 5742 5740 5738 5737 5735 5733 5732 5731 5730 5730 5729 5729 5728 5728 5729 5729 5728 5728 5727 5726
5766 5758 5770 5780 5786 5786 5782 5785 5790 5778 5766 5769 5770 5773 5775 5772 5768 5764 5759 5757 5755 5753 5752 5750 5748 5747 5745 5743 5739 5737 5735 5733 5731 5729 5728 5727 5726 5725 5725 5725 5724 5723 5723 5723 5724 5725 5724 5723 5723
5765 5772 5778 5780 5788 5784 5782 5781 5777 5776 5774 5781 5780 5777 5771 5764 5760 5758 5754 5752 5751 5750 5748 5747 5745 5743 5741 5738 5734 5731 5729 5727 5725 5724 5723 5722 5720 5720 5719 5719 5718 5718 5718 5718 5719 5720 5720 5719 5719
5761 5768 5779 5783 5783 5782 5780 5773 5770 5768 5777 5779 5776 5771 5764 5760 5756 5753 5751 5748 5747 5745 5744 5742 5742 5738 5735 5732 5728 5725 5723 5722 5720 5719 5717 5716 5715 5715 5714 5713 5713 5713 5714 5714 5715 5715 5716 5715 5716
5766 5770 5773 5778 5780 5778 5771 5764 5763 5759 5769 5767 5765 5759 5756 5752 5750 5746 5744 5742 5741 5740 5738 5738 5736 5733 5730 5727 5722 5719 5718 5716 5714 5712 5711 5710 5709 5708 5708 5708 5708 5708 5709 5710 5711 5711 5711 5711 5711
5771 5763 5763 5770 5775 5771 5768 5749 5752 5758 5760 5755 5753 5751 5748 5744 5742 5737 5736 5735 5735 5734 5733 5732 5729 5727 5723 5720 5717 5714 5712 5710 5708 5706 5705 5704 5704 5704 5703 5702 5702 5702 5703 5704 5705 5706 5706 5706 5706
5761 5750 5741 5758 5770 5770 5757 5731 5746 5755 5752 5745 5744 5744 5739 5736 5735 5733 5731 5729 5728 5728 5726 5725 5724 5720 5717 5714 5711 5709 5706 5704 5702 5700 5699 5698 5698 5698 5697 5697 5697 5697 5698 5698 5699 5700 5700 5700 5700
5738 5731 5734 5746 5765 5766 5751 5732 5743 5748 5746 5740 5738 5736 5732 5730 5728 5727 5726 5723 5722 5721 5719 5718 5717 5714 5711 5708 5705 5703 5700 5698 5696 5694 5693 5693 5692 5692 5692 5691 5691 5692 5692 5692 5694 5694 5694 5693 5693
5722 5728 5733 5737 5756 5757 5744 5736 5739 5741 5740 5735 5732 5729 5727 5724 5721 5722 5721 5720 5716 5714 5712 5711 5711 5708 5705 5701 5698 5696 5694 5691 5689 5688 5686 5686 5686 5686 5685 5685 5685 5685 5686 5686 5687 5688 5688 5688 5688
5734 5732 5729 5740 5756 5749 5739 5734 5735 5737 5735 5728 5725 5723 5721 5719 5718 5717 5717 5715 5711 5707 5705 5704 5702 5701 5698 5695 5691 5688 5685 5684 5682 5681 5680 5680 5680 5679 5679 5679 5678 5678 5678 5679 5681 5681 5681 5681 5682
5736 5729 5728 5739 5754 5746 5733 5729 5733 5733 5730 5727 5724 5720 5717 5713 5711 5710 5710 5709 5706 5702 5699 5697 5696 5694 5693 5690 5687 5683 5681 5678 5676 5674 5674 5673 5672 5672 5672 5672 5671 5671 5671 5672 5673 5675 5674 5674 5675
5735 5731 5731 5733 5742 5742 5730 5716 5720 5726 5728 5726 5723 5720 5716 5712 5708 5707 5704 5701 5700 5696 5694 5692 5690 5688 5686 5684 5681 5677 5674 5671 5669 5667 5666 5666 5666 5665 5665 5665 5664 5663 5664 5664 5665 5667 5666 5665 5667
5726 5745 5744 5739 5724 5712 5723 5695 5708 5716 5716 5717 5715 5713 5711 5709 5706 5702 5699 5695 5693 5691 5688 5686 5683 5681 5679 5677 5673 5669 5665 5661 5660 5660 5659 5659 5658 5657 5658 5658 5657 5657 5656 5656 5657 5659 5659 5659 5658
5739 5750 5745 5739 5723 5708 5711 5696 5698 5709 5706 5710 5711 5711 5708 5706 5702 5698 5694 5691 5688 5685 5682 5679 5677 5674 5672 5670 5666 5662 5659 5656 5654 5653 5652 5650 5650 5650 5650 5649 5649 5649 5648 5649 5649 5651 5651 5652 5651
5751 5741 5731 5718 5705 5689 5702 5694 5687 5696 5705 5708 5708 5708 5704 5701 5697 5693 5689 5686 5681 5678 5675 5672 5668 5665 5663 5661 5658 5655 5652 5649 5647 5645 5643 5641 5641 5641 5641 5641 5641 5641 5641 5642 5642 5643 5644 5644 5645
5739 5711 5687 5683 5674 5679 5699 5691 5685 5704 5712 5711 5706 5703 5700 5696 5691 5686 5683 5678 5674 5670 5667 5663 5660 5656 5654 5652 5650 5647 5644 5642 5639 5637 5635 5633 5631 5631 5632 5633 5633 5633 5634 5635 5635 5635 5636 5636 5637
5728 5711 5682 5670 5669 5674 5688 5681 5688 5706 5710 5710 5705 5697 5692 5686 5682 5679 5676 5671 5667 5663 5659 5655 5652 5648 5646 5644 5641 5639 5637 5634 5631 5630 5628 5626 5624 5623 5624 5625 5625 5625 5626 5627 5628 5628 5628 5629 5629
5722 5709 5705 5684 5678 5668 5671 5678 5688 5699 5697 5697 5694 5689 5683 5678 5674 5670 5668 5664 5660 5656 5651 5648 5644 5641 5638 5636 5633 5630 5628 5626 5623 5622 5621 5619 5617 5617 5617 5617 5617 5617 5618 5619 5619 5619 5619 5620 5621
5728 5717 5694 5679 5665 5658 5665 5668 5670 5682 5684 5687 5685 5681 5678 5672 5666 5662 5660 5656 5653 5649 5645 5640 5636 5633 5630 5628 5625 5622 5619 5617 5616 5614 5613 5611 5610 5609 5609 5609 5608 5609 5609 5610 5610 5610 5611 5612 5612
5714 5706 5692 5676 5671 5657 5650 5659 5684 5683 5682 5681 5679 5676 5673 5666 5660 5656 5652 5649 5645 5641 5636 5632 5628 5625 5622 5619 5616 5613 5611 5609 5608 5606 5604 5603 5602 5602 5601 5600 5601 5600 5600 5601 5601 5601 5602 5603 5603
5716 5705 5690 5672 5666 5662 5653 5658 5686 5684 5681 5677 5673 5669 5666 5661 5656 5649 5644 5641 5637 5633 5629 5624 5620 5617 5613 5611 5608 5604 5602 5600 5598 5597 5595 5595 5594 5593 5593 5593 5592 5592 5592 5592 5592 5593 5593 5594 5594